Dewpoint
72 71 70 70 68 68 69 68 66 66 68 65 64 67 67 69 70 69 68 69 70 71 72 73 75 76 73 75 77 76 75 76 76 74 75 74 72 71 68 70 71 69
73 72 72 70 70 70 71 69 68 67 68 69 67 67 69 70 70 71 70 70 71 71 72 72 74 75 76 74 76 75 76 76 75 71 74 75 73 71 70 71 70 70
72 72 71 70 68 69 68 69 70 68 66 66 67 69 67 69 70 72 71 71 70 68 70 72 73 75 74 75 75 75 74 76 75 72 74 75 73 73 73 70 69 70
73 72 70 68 68 68 68 69 70 70 68 66 67 66 68 66 70 69 72 72 71 71 70 71 72 72 74 74 75 74 74 76 74 76 75 76 75 73 72 72 71 70
72 72 71 70 69 70 70 69 68 68 68 68 68 69 70 71 71 69 71 72 73 71 70 71 72 72 74 75 75 75 74 73 74 77 76 75 75 74 72 72 72 72
72 73 72 70 70 70 69 69 69 68 69 68 69 69 69 70 71 70 69 69 69 68 67 68 70 71 71 73 74 74 72 70 71 75 76 76 73 71 69 71 73 73
69 71 70 70 69 69 70 70 70 70 69 69 71 70 70 69 70 71 70 70 69 70 67 69 73 73 72 73 74 75 74 74 75 76 77 75 75 74 72 72 73 73
69 68 70 70 68 67 69 68 68 70 71 71 69 71 71 69 71 69 70 69 69 69 70 69 73 75 72 72 74 74 74 71 72 75 77 76 75 75 74 72 73 74
68 69 69 69 68 66 65 65 66 68 70 70 68 68 70 70 70 70 71 71 70 70 72 71 73 73 73 72 73 74 74 73 70 72 73 73 74 75 73 73 72 73
68 68 67 67 67 66 65 64 64 65 68 68 68 68 68 71 70 71 72 74 71 72 72 73 72 72 72 72 73 74 74 74 74 74 73 72 73 73 72 73 72 72
67 67 68 68 67 66 65 64 64 64 66 68 68 67 68 69 71 72 72 74 71 71 72 72 72 72 72 71 71 72 73 72 73 73 74 74 74 74 74 74 74 73
69 67 68 68 68 67 66 65 65 65 65 66 67 67 68 68 70 71 70 73 73 71 71 72 73 72 73 73 71 71 72 72 73 73 73 73 73 73 73 73 73 73
70 70 68 68 69 69 67 67 66 66 65 64 66 67 66 67 68 70 71 71 72 71 69 71 73 72 74 75 74 73 73 73 72 72 72 72 73 72 71 71 71 71
69 69 69 70 71 72 72 70 67 67 67 67 67 67 65 65 67 67 69 70 70 71 70 71 72 73 75 76 75 73 72 72 73 72 71 71 71 72 71 70 71 70
73 74 74 73 74 74 74 74 73 71 69 69 70 68 65 66 66 67 68 69 70 70 71 70 69 71 72 73 74 74 74 72 71 72 72 72 72 71 71 71 71 70
75 75 75 74 75 75 75 75 75 74 71 69 69 69 69 69 69 69 68 69 69 70 71 70 69 71 74 76 76 74 73 71 70 72 72 72 72 72 71 70 70 70
76 75 75 74 75 75 75 75 75 74 74 73 71 70 70 71 69 68 68 68 68 69 70 70 70 72 76 69 70 72 73 72 72 72 73 74 72 73 73 71 70 70
76 76 75 75 75 75 76 75 73 73 74 73 73 71 73 70 69 70 71 68 67 68 68 68 69 74 69 68 69 69 73 73 72 71 72 72 72 71 70 70 70 69
76 76 76 76 76 75 75 75 74 74 73 73 73 73 71 73 72 72 71 69 68 69 68 68 67 71 67 67 67 67 68 73 71 72 72 72 72 73 72 71 72 71
76 75 75 75 75 74 74 74 74 73 74 74 74 73 73 73 74 72 70 72 72 71 71 70 70 71 66 66 66 66 66 70 72 72 72 72 72 73 72 72 75 74
74 74 73 74 74 74 73 73 72 72 74 73 74 73 73 72 73 71 72 72 71 70 72 71 70 63 64 65 65 65 66 69 72 72 72 73 73 73 74 74 74 73
74 73 72 73 73 73 72 72 72 72 71 73 72 71 71 70 71 72 72 72 72 72 73 72 71 62 61 62 63 64 67 71 73 74 74 74 74 73 74 76 76 76
72 72 72 73 72 71 71 72 71 71 72 72 71 71 72 72 71 72 72 73 72 72 72 72 71 64 59 59 60 61 66 72 73 74 74 73 73 73 75 75 75 75
70 70 70 70 70 70 70 71 71 71 71 71 71 70 69 69 70 71 72 72 72 71 71 72 72 67 60 59 59 61 67 72 72 73 73 74 73 73 76 76 74 75
66 66 66 66 67 68 69 70 70 70 70 70 70 70 69 70 71 71 72 71 71 72 71 72 72 67 57 57 58 60 68 72 73 73 74 74 74 73 73 74 74 75
64 64 64 64 64 65 65 65 67 70 70 70 70 70 70 71 71 72 72 72 71 73 72 73 73 70 61 54 55 57 60 70 73 72 71 71 72 73 72 73 73 72